POERUNWV Weather Reports


time (UTC)temp
C
wind
direction
speed
KPH
gust
KPH
rain 1hr
cm
rain 24hr
cm
rain mn
cm
humidity
%
barometer
mb
20260503221537 11 305 3.2 9.7 0.00 0.00 0.00 37 1015.0
20260503220040 11 0 0.0 9.7 0.00 0.00 0.00 37 1015.0
20260503214542 11 217 3.2 8.0 0.00 0.00 0.00 37 1015.0
20260503213052 11 192 3.2 11.3 0.00 0.00 0.00 37 1015.1
20260503211556 11 337 4.8 12.9 0.00 0.00 0.00 36 1015.2
20260503210036 11 0 4.8 17.7 0.00 0.00 0.00 35 1015.4
20260503204552 11 269 1.6 11.3 0.00 0.00 0.00 37 1015.5
20260503203040 11 1 3.2 14.5 0.00 0.00 0.00 40 1015.5
20260503201538 11 334 6.4 14.5 0.00 0.00 0.00 35 1015.8
20260503200038 11 321 4.8 16.1 0.00 0.00 0.00 37 1015.9
20260503194537 11 314 4.8 20.9 0.00 0.00 0.00 38 1016.3
20260503193039 11 316 6.4 14.5 0.00 0.00 0.00 36 1016.6
20260503191555 10 282 3.2 12.9 0.00 0.00 0.00 40 1016.5
20260503190038 10 259 6.4 12.9 0.00 0.00 0.00 37 1016.6
20260503184551 10 319 3.2 14.5 0.00 0.00 0.00 38 1016.7
20260503183042 10 249 3.2 8.0 0.00 0.00 0.00 38 1017.0
20260503181534 10 350 4.8 9.7 0.00 0.00 0.00 41 1017.0
20260503180040 9 283 4.8 12.9 0.00 0.00 0.00 41 1017.3
20260503174549 9 333 4.8 12.9 0.00 0.00 0.00 43 1017.3
20260503173037 8 338 4.8 14.5 0.00 0.00 0.00 43 1017.4
20260503171536 8 306 4.8 12.9 0.00 0.00 0.00 44 1017.4
20260503081551 0 0 0.0 1.6 0.00 0.00 0.00 87 1015.4
20260503071557 0 311 1.6 4.8 0.00 0.00 0.00 86 1014.8
20260503054551 0 0 0.0 1.6 0.00 0.00 0.00 84 1014.7
20260503053032 0 352 0.0 3.2 0.00 0.00 0.00 83 1014.8
20260503051542 0 0 0.0 3.2 0.00 0.00 0.00 82 1014.7
20260503050036 1 350 1.6 4.8 0.00 0.00 0.00 82 1014.7
20260503044535 1 329 1.6 3.2 0.00 0.00 0.00 82 1014.8
20260503043035 1 351 1.6 6.4 0.00 0.00 0.00 81 1014.9
20260503041535 1 336 1.6 4.8 0.00 0.00 0.00 81 1014.8
20260503040034 1 353 1.6 6.4 0.00 0.00 0.00 80 1014.9
20260503034538 2 338 0.0 4.8 0.00 0.00 0.00 79 1014.9
20260503033048 2 334 1.6 8.0 0.00 0.00 0.00 78 1014.9
20260503031543 2 350 3.2 8.0 0.00 0.00 0.00 77 1014.8
20260503030037 2 350 3.2 8.0 0.00 0.00 0.00 76 1014.7
20260503024543 2 344 1.6 6.4 0.00 0.00 0.00 73 1014.8
20260503023035 3 348 1.6 8.0 0.00 0.00 0.00 71 1014.8
20260503021536 3 330 3.2 9.7 0.00 0.00 0.00 69 1014.7
20260503020035 3 317 1.6 9.7 0.00 0.00 0.00 69 1014.7
20260503014534 3 335 4.8 9.7 0.00 0.00 0.00 69 1014.8
20260503013036 3 353 1.6 8.0 0.00 0.00 0.00 67 1014.7
20260503011531 3 353 3.2 9.7 0.00 0.00 0.00 65 1014.5
20260503010036 3 348 1.6 8.0 0.00 0.00 0.00 65 1014.3
20260503004538 4 346 3.2 6.4 0.00 0.00 0.00 60 1014.3
20260503003039 5 330 1.6 6.4 0.00 0.00 0.00 58 1013.9
20260503001533 5 308 1.6 6.4 0.00 0.00 0.00 57 1013.9
20260503000037 5 324 3.2 8.0 0.00 0.00 0.00 55 1013.8
20260502234547 5 306 3.2 8.0 0.00 0.00 0.00 53 1013.6
20260502233035 5 310 3.2 6.4 0.00 0.00 0.00 51 1013.4
20260502231534 6 311 1.6 4.8 0.00 0.00 0.00 52 1013.3
20260502230037 6 344 1.6 6.4 0.00 0.00 0.00 51 1013.2
20260502224537 6 357 1.6 8.0 0.00 0.00 0.00 55 1013.1
20260502223036 6 314 1.6 6.4 0.00 0.00 0.00 51 1013.1